Flag for Germany Weather past 2 weeks in Werl, North Rhine-Westphalia, Germany

Now
37 °F

Passing clouds.


Feels Like: 28 °F
Forecast: 38 / 45 °F
Wind: 15 mph from West

Location: Paderborn / Lippstadt

Current Time: Apr 1, 2015 at 3:55:58 AM

Latest Report: Apr 1, 2015 at 3:20 AM


Visibility: N/A

Pressure: 29.74 "Hg

Humidity: 70%

Dew point: 28 °F

Location of WerlLocation

Historic Weather in Werl — Graph

°F

Werl temperature yesterday

Maximum temperature yesterday: 50 °F (at 6:50 AM)
Minimum temperature yesterday: 36 °F (at 2:20 AM)
Average temperature yesterday: 43 °F

Past Weeks' High & Low Weather Summary

 TemperatureHumidityPressure
High59 °F (Mar 17, 3:20 PM)100% (Mar 17, 1:20 AM)30.36 "Hg (Mar 17, 1:20 AM)
Low28 °F (Mar 23, 2:50 AM)41% (Mar 25, 11:50 AM)29.15 "Hg (Mar 31, 7:20 AM)
Average42 °F79%29.93 "Hg
* Reported Mar 17 1:20 AM — Apr 1 2:20 AM, Werl, Weather by CustomWeather, © 2015

Note: Actual official high and low records may vary slightly from our data, if they occured in-between our weather recording intervals... More about our weather records

Advertising

Werl weather history for previous 24 hours

 ConditionsComfort  
Time TempWeatherWind HumidityBarometerVisibility
2:20 AM
Wed, Apr 1
37 °FPassing clouds.13 mph70%29.74 "HgN/A
1:50 AM37 °FThundershowers. Passing clouds.16 mph70%29.71 "HgN/A
1:20 AM37 °FPassing clouds.17 mph70%29.71 "HgN/A
12:50 AM37 °FPassing clouds.15 mph70%29.71 "HgN/A
12:20 AM37 °FThundershowers. Passing clouds.14 mph75%29.68 "HgN/A
11:50 PM
Tue, Mar 31
37 °FThundershowers. Passing clouds.16 mph75%29.68 "HgN/A
11:20 PM37 °FPassing clouds.17 mph75%29.68 "HgN/A
10:50 PM39 °FPassing clouds.18 mph65%29.68 "HgN/A
10:20 PM41 °FPassing clouds.13 mph61%29.68 "HgN/A
9:50 PM41 °FPassing clouds.12 mph66%29.68 "HgN/A
9:20 PM39 °FPassing clouds.14 mph75%29.65 "HgN/A
8:50 PM39 °FScattered clouds.16 mph75%29.65 "HgN/A
8:20 PM41 °FScattered clouds.14 mph70%29.65 "HgN/A
7:50 PM41 °FRain showers. Broken clouds.20 mph70%29.62 "HgN/A
7:20 PM43 °FSprinkles. Partly sunny.23 mph53%29.62 "HgN/A
6:50 PM45 °FScattered showers. Clear.21 mph49%29.59 "HgN/A
6:20 PM45 °FScattered showers. Scattered clouds.23 mph49%29.59 "HgN/A
5:50 PM45 °FScattered clouds.17 mph53%29.56 "HgN/A
5:20 PM45 °FScattered showers. Scattered clouds.23 mph57%29.53 "HgN/A
4:50 PM41 °FRain showers. Partly sunny.22 mph76%29.53 "HgN/A
4:20 PM41 °FSprinkles. Partly sunny.18 mph76%29.50 "HgN/A
3:50 PM45 °FSprinkles. Partly sunny.22 mph66%29.47 "HgN/A
3:20 PM46 °FSprinkles. Overcast.22 mph57%29.45 "HgN/A
2:50 PM46 °FLight rain. Partly sunny.25 mph57%29.42 "HgN/A
2:20 PM46 °FScattered showers. Partly sunny.28 mph57%29.42 "HgN/A
1:50 PM46 °FLight rain. Partly sunny.23 mph71%29.39 "HgN/A
1:20 PM45 °FSprinkles. Scattered clouds.26 mph76%29.36 "HgN/A
12:50 PM46 °FSprinkles. Scattered clouds.20 mph71%29.36 "HgN/A
12:20 PM46 °FLight rain. Broken clouds.25 mph66%29.33 "HgN/A
11:50 AM46 °FLight rain. Broken clouds.26 mph66%29.33 "HgN/A
11:20 AM46 °FLight rain. Broken clouds.23 mph76%29.30 "HgN/A
10:50 AM46 °FLight rain. Broken clouds.21 mph71%29.30 "HgN/A
10:20 AM45 °FLight rain. Partly sunny.23 mph81%29.27 "HgN/A
9:50 AM43 °FLight rain. Partly sunny.13 mph93%29.27 "HgN/A
9:20 AM43 °FRain. Partly sunny.15 mph93%29.24 "Hg4 mi
8:50 AM41 °FRain. Overcast.30 mph93%29.21 "Hg1 mi
8:20 AM46 °FLight rain. More clouds than sun.22 mph93%29.18 "Hg4 mi
7:50 AM48 °FLight rain. Overcast.26 mph87%29.18 "HgN/A
7:20 AM50 °FLight rain. Overcast.28 mph82%29.15 "HgN/A
6:50 AM50 °FLight rain. Overcast.29 mph82%29.18 "HgN/A
6:20 AM46 °FRain. Passing clouds.21 mph93%29.18 "Hg2 mi
5:50 AM43 °FRain. Passing clouds.20 mph93%29.21 "Hg5 mi
5:20 AM43 °FRain. Passing clouds.22 mph87%29.21 "HgN/A
4:50 AM41 °FRain. Passing clouds.16 mph93%29.27 "HgN/A
4:20 AM39 °FRain. Passing clouds.14 mph87%29.33 "HgN/A
3:50 AM37 °FRain. Passing clouds.17 mph87%29.36 "HgN/A
3:20 AM36 °FRain. Passing clouds.16 mph93%29.45 "HgN/A
Weather by CustomWeather, © 2015

See weather overviewHow to use our weather pages